INTELSAT 805 (IS-805)

Last updated on Sept. 20, 2020, 5:45 a.m. UTC

1 25371U 98037A   20263.76481625 -.00000295  00000-0  00000-0 0  9994
2 25371   2.6742  87.0104 0013560  97.5737 243.5405  0.99480869 81504
UTC
Height (km)
Latitude
Longitude
Inclination
Orbital Period
UTC large
Height (km)
Speed (km/s)
/
Latitude / Longitude
Inclination (degrees)
Orbital Period (minutes)
Azimuth
Elevation
Range (km)
Doppler Factor
iOS Compass Heading
iOS Angle

Next 30 passes for location: Hong Kong

Rise time Rise Azimuth (degrees) Set time Set Azimuth (degrees) Duration Max altitude (degrees)

No matching passes for this satellites